Regional Weather Roundup
Issued by NWS Pendleton, OR

Home | Current Version | Previous Version | Text Only | Print | Product List | Glossary On
Versions: 1 2 3 4 5 6 7 8 9 10 11 12 13 14 15 16 17 18 19 20 21 22 23 24 25 26 27 28 29 30 31 32 33 34 35 36 37 38 39 40 41 42 43 44 45 46 47 48 49 50
000
ASUS46 KPDT 040910
RWRPDT
PENDLETON REGIONAL WEATHER ROUNDUP
NATIONAL WEATHER SERVICE PENDLETON OREGON
200 AM PDT SAT JUL 4 2015

NOTE: FAIR INDICATES FEW OR NO CLOUDS BELOW 12,000 FEET WITH NO
SIGNIFICANT WEATHER AND/OR OBSTRUCTIONS TO VISIBILITY.

# INDICATES UNOFFICIAL STATION AND DATA

WAZ520-041010-
EAST SLOPES OF WASHINGTON CASCADES

CITY            SKY/WX      TMP DP  RH  WIND    PRES   REMARKS
#BULLFROG 2SW   N/A         68  50  53  CALM    27.51F
#BUMPING DAM    N/A         61  N/A N/A SW2     N/A
#CLE ELUM HS    N/A         74  50  43  SW7     29.82F
#CLE ELUM LAKE  N/A         70  47  44  NW1     29.71F
#CLIFFDEL 2NW   N/A         67  50  54  N1      N/A
#EASTON DOT     N/A         71  44  38  N2      N/A
#GLENWOOD       N/A         55  50  83  CALM    29.74S
#MANASTASH CYN  N/A         73  40  30  CALM    29.86F
#NELSON         N/A         73  53  49  CALM    29.75F
#NELSON 3SW     N/A         69  48  47  CALM    29.92S
#NILE           N/A         65  51  60  CALM    29.05F
#PEOH POINT     N/A         66  46  48  SW8     N/A
#RONALD 2NW     N/A         70  48  46  E1      29.81F
#SNOWDEN        N/A         68  39  35  VRB1    N/A
#TEANAWAY 4NE   N/A         66  51  58  CALM    N/A
#TROUT LAKE 1NE N/A         72  52  49  CALM    29.73S
$$

WAZ521-041010-
SIMCOE HIGHLANDS

CITY            SKY/WX      TMP DP  RH  WIND    PRES   REMARKS
#BICKLETON HS   N/A         75  32  21  CALM    N/A
#SATUS PASS DOT N/A         68  44  42  CALM    N/A
#GOLDENDALE     N/A         70  51  51  W6      N/A
#GOLDENDALE 5WNWN/A         72  52  49  NW6     29.70S
#GOODNOE HILLS  N/A         75  53  46  NW8     N/A
#LYLE 6NE       N/A         74  55  51  CALM    29.70F
$$

WAZ026-041010-
KITTITAS VALLEY

CITY            SKY/WX      TMP DP  RH  WIND    PRES   REMARKS
ELLENSBURG AP   CLEAR       76  49  39  NW17G26 29.81S
YTC-OPS AREA    N/A         71  45  39  W33G46  29.81F
#ELLENSBURG CWU N/A         75  50  41  NW13    29.65S
#ELLENSBURG 3NE N/A         74  51  44  NW9     29.82S
#ELLENSBURG 1E  N/A         75  47  37  CALM    N/A
#KITTITAS 3S    N/A         63  52  67  CALM    29.69S
#THORP 6N       N/A         72  49  44  NW18G28 29.71S
$$

WAZ027-041010-
YAKIMA VALLEY

CITY            SKY/WX      TMP DP  RH  WIND    PRES   REMARKS
SUNNYSIDE AP    CLEAR       63  54  72  E3      29.74R
YAKIMA AIRPORT  CLEAR       81  47  30  N8      29.77F
#DONALD 2NE     N/A         81  18   9  N2      28.60R
#GRANDVIEW      N/A         78  45  31  W1      29.69S
#MABTON         N/A         80  51  36  SW3     29.73R
#MOXEE 2E       N/A         79  30  17  W6      29.70F
#NACHES 2SW     N/A         76  51  42  W14     29.81F
#TERRACE HTS    N/A         81  47  30  NW8     29.63F
#TOPPENISH      N/A         83  49  31  NW3     29.61R
#WAPATO 4NE     N/A         81  18   9  N2      28.60R
#WEST VALLEY    N/A         79  47  32  CALM    29.66F
#W YAKIMA       N/A         79  50  36  NE3     29.68S
#WHITE SWAN 5E  N/A         69  54  59  CALM    29.69S
#WILEY CITY 3W  N/A         67  44  43  CALM    29.75S
$$

WAZ028-041010-
LOWER COLUMBIA BASIN...WASHINGTON

CITY            SKY/WX      TMP DP  RH  WIND    PRES   REMARKS
PASCO           CLEAR       79  54  42  S6      29.73R
RICHLAND AWOS   CLEAR       79  48  34  MISG    29.72R
#BASIN CITY 5SW N/A         77  53  43  W2      29.71R
#BENTON CITY    N/A         82  47  29  CALM    29.59R
#CONNELL 5N     N/A         75  52  45  NW2     29.64S
#CONNELL 5NW    N/A         71  54  55  W5      29.61F
#ELTOPIA 6NW    N/A         75  54  48  SW2     28.71R
#KAHLOTUS       N/A         77  48  36  NW7     29.66R
#KENNEWICK      N/A         68  50  53  CALM    27.51F
#KENNEWICK 3S   N/A         78  53  42  S1      29.68R
#PATERSON       N/A         77  51  40  W3      29.69R
#PROSSER DOT    N/A         73  53  49  CALM    N/A
#PROSSER        N/A         85  41  21  SW7     29.67R
#SAGEMOOR 2W    N/A         76  53  45  CALM    29.52S
#TOUCHET 2S     N/A         82  50  33  SW10    29.67R
#WEST PASCO     N/A         80  54  41  S1      29.69R
$$

WAZ029-041010-
FOOTHILLS OF THE BLUES...WASHINGTON

CITY            SKY/WX      TMP DP  RH  WIND    PRES   REMARKS
WALLA WALLA AP  CLEAR       81  47  30  S12     29.78S
#DAYTON SCHOOL  N/A         73  37  27  E6      29.80S
#LOWDEN 2SE     N/A         71  54  55  CALM    29.71R
#PLEASANT VIEW 1N/A         73  43  34  S7      29.69R
#PRESCOTT       N/A         65  48  54  CALM    29.68R
#SUDBURY        N/A         63  N/A N/A CALM    N/A
#WAITSBURG 5S   N/A         76  48  37  S5      29.76S
#WAITSBURG 8N   N/A         75  21  13  S8      29.62R
#WALLA WALLA U  N/A         81  50  34  CALM    29.69R
#WHITMAN MISSIONN/A         73  55  53  CALM    29.71S
$$

WAZ030-041010-
BLUE MOUNTAINS...WASHINGTON

CITY            SKY/WX      TMP DP  RH  WIND    PRES   REMARKS
#DIXIE 5SE      N/A         87  45  23  W1      29.83S
$$

ORZ009-041-WAZ024-041010-
COLUMBIA RIVER GORGE

CITY            SKY/WX      TMP DP  RH  WIND    PRES   REMARKS
HOOD RIVER AP   CLEAR       75  54  48  NW5     29.82S
THE DALLES AP   CLEAR       78  54  43  NW10    29.76R
#ARLINGTON AIRPON/A         77  50  39  W5      31.49S
#ARLINGTON HS   N/A         81  48  32  CALM    29.60S
#CELILO DOT     N/A         83  55  38  SW7     N/A
#MARYHILL       N/A         80  51  36  CALM    N/A
#MOSIER 1S      N/A         76  41  28  NW8     29.76F
#MURDOCK        N/A         79  59  50  W10     29.76R
#RUFUS DOT      N/A         84  57  40  W17     N/A

$$

ORZ510-041010-
NORTH CENTRAL OREGON

CITY            SKY/WX      TMP DP  RH  WIND    PRES   REMARKS
#CHENOWITH 1W   N/A         72  51  48  W35     N/A
#COW CYN RST AREN/A         72  N/A N/A SW2     N/A
#DUFUR 9E       N/A         76  43  31  W2      29.75F
#GRASS VALLEY 1SN/A         65  47  52  S10     29.75R
#KENT DOT       N/A         67  44  43  SW5     N/A
#MAUPIN SCHOOL  N/A         74  47  38  CALM    29.83S
#MORO SCHOOL    N/A         78  47  34  SW1     29.85R
#SHANIKO 5WSW   N/A         70  41  35  SW6     N/A
#SHANIKO 4NW    N/A         70  42  36  SW6     29.97S
#TYGH VALLEY 2NEN/A         67  44  43  NW1     29.74S
#WAPANITIA AIRPON/A         74  49  41  NW7     29.74S
#WASCO DOT      N/A         75  51  43  SW3     N/A
#WASCO 5NE      N/A         74  51  44  CALM    29.70R
$$

ORZ511-041010-
CENTRAL OREGON

CITY            SKY/WX      TMP DP  RH  WIND    PRES   REMARKS
BEND AIRPORT    N/A         N/A N/A N/A MISG    N/A
MADRAS AIRPORT  PTCLDY      61  48  62  S6      29.93F
PRINEVILLE AP   CLOUDY      61  37  41  S5      29.96S
REDMOND AIRPORT MOCLDY      63  41  44  SW5     29.96S
#BEND 1SW       N/A         62  48  60  CALM    N/A
#BEND-AWBREY    N/A         68  47  47  S9      29.74S
#BEND-KIM LN    N/A         67  50  54  S1      29.96S
#CROOKED RVR RANN/A         71  47  42  CALM    29.73S
#CULVER         N/A         69  47  45  SE1     29.89S
#LAKE BILLY CHINN/A         67  20  16  CALM    29.97R
#POWELL BUTTE 3EN/A         66  42  42  E2      N/A
#POWELL BUTTE   N/A         71  41  34  W3      29.61F
#PRINEVILLE 3N  N/A         58  47  67  E3      29.73S
#WARM SPRINGS   N/A         68  46  45  CALM    29.85R

$$


ORZ509-041010-
EAST SLOPES OF OREGON CASCADES

CITY            SKY/WX      TMP DP  RH  WIND    PRES   REMARKS
#CAMP SHERMAN   N/A         64  41  43  CALM    29.73S
#LA PINE 4NW    N/A         55  43  64  CALM    29.81S
#SISTERS AIRPOR N/A         59  48  67  N1      30.17S
#SISTERS ODOT   N/A         57  N/A N/A CALM    N/A
#SISTERS 3N     N/A         64  35  34  CALM    29.95F
#SUNRIVER       N/A         62  47  58  CALM    29.65S
#TUMALO 3W      N/A         66  42  42  CALM    29.63S
#WANOGA BUTTE D N/A         68  22  17  CALM    N/A

$$

ORZ044-041010-
LOWER COLUMBIA BASIN...OREGON

CITY            SKY/WX      TMP DP  RH  WIND    PRES   REMARKS
HERMISTON       CLEAR       81  45  28  SW10    29.74R
#BOARDMAN SCHOOLN/A         81  48  32  SW7     29.74R
#BOARDMAN 8SW   N/A         76  52  43  SW7     29.70S
#ECHO 8SW       N/A         83  46  27  SW15    29.75S
#IONE SCHOOL    N/A         81  42  25  S7      29.77S
#IRRIGON 4NW    N/A         76  54  46  S3      N/A
#UMATILLA SCHOOLN/A         78  64  62  CALM    29.79R
#UMATILLA       N/A         78  54  43  CALM    29.65R
$$

ORZ507-041010-
NORTHERN FOOTHILLS OF THE BLUES

CITY            SKY/WX      TMP DP  RH  WIND    PRES   REMARKS
PENDLETON AIRPT CLEAR       73  45  37  CALM    29.80S
#ADAMS 3WNW     N/A         64  43  46  CALM    29.70S
#ATHENA         N/A         68  47  47  CALM    29.73S
#CAYUSE         N/A         73  48  41  CALM    29.70R
#HELIX SCHOOL   N/A         72  46  39  CALM    29.70S
#HELIX 3N       N/A         71  44  38  S6      29.81R
#HOLDMAN 6E     N/A         76  45  33  N5      29.52R
#M-F GROVE ELEM N/A         75  43  32  CALM    29.78S
#M-FREEWATER 5SEN/A         74  50  43  CALM    29.80S
#PENDLETON DNTN N/A         73  43  34  CALM    29.78R
#PDT AQUATIC CTRN/A         74  42  32  VRB2    29.83S
#PDT SUNRIDGE   N/A         74  46  37  SE1     29.80S
#PENDLETON 7NW  N/A         77  51  40  CALM    27.36S
#PILOT ROCK     N/A         73  44  35  S5      29.85S
#TUTUILLA       N/A         72  48  43  S5      29.74S
#UMAPINE 2E     N/A         80  52  38  SW3     29.72R
#WESTON SCHOOL  N/A         73  44  35  W1      29.71R

$$

ORZ508-041010-
SOUTHERN FOOTHILLS OF THE BLUES

CITY            SKY/WX      TMP DP  RH  WIND    PRES   REMARKS
#AJAX           N/A         74  38  27  S6      29.81F
#CONDON SCHOOL  N/A         70  39  32  SW2     29.88S
#CONDON 5W      N/A         70  41  35  SW7     29.91S
#FOSSIL SCHOOL  N/A         62  37  39  CALM    29.88S
#HEPPNER EOC    N/A         76  41  28  CALM    29.66S
#HEPPNER 4NE    N/A         73  41  31  S1      29.70S
#LEXINGTON 2SE  N/A         75  42  31  S3      29.80S
#RUGGS 5NE      N/A         71  40  32  S7      30.04F
#RUGGS 2SW      N/A         72  39  30  W1      29.73S

$$

ORZ502-503-041010-
BLUE MOUNTAINS

CITY            SKY/WX      TMP DP  RH  WIND    PRES   REMARKS
MEACHAM         CLEAR       51  43  74  CALM    29.96S
#BATTLE MTN DOT N/A         64  51  63  NE1     N/A
#HEPPNER 15SE   N/A         64  42  45  CALM    29.90F
#LONG CREEK HS  N/A         62  40  44  CALM    29.92F
#N POWDER DOT   N/A         63  47  56  NW6     N/A
#PIKES PEAK     N/A         76  48  37  SW17    27.99S
#TOLLGATE       N/A         61  44  53  CALM    29.96S
#TROY SCHOOL    N/A         71  49  46  CALM    29.57R
#UKIAH          N/A         50  44  80  CALM    29.81R
#WESTON 4E      N/A         72  46  39  S2      29.64S
$$

ORZ505-041010-
JOHN DAY BASIN

CITY            SKY/WX      TMP DP  RH  WIND    PRES   REMARKS
JOHN DAY        MOCLDY      72  32  23  SW6     29.97R
#JOHN DAY KJDY  N/A         62  48  60  E2      30.00R
#DAYVILLE SCHOOLN/A         75  32  21  CALM    29.88R
#MITCHELL       N/A         64  39  40  CALM    30.11S
#MONUMENT HS    N/A         66  36  33  CALM    29.89R
#MT. VERNON 5SE N/A         68  33  27  CALM    29.94R
#WINLOCK        N/A         65  38  37  CALM    30.02S
$$

ORZ506-041010-
OCHOCO AND JOHN DAY HIGHLANDS

CITY            SKY/WX      TMP DP  RH  WIND    PRES   REMARKS
#BUCK CREEK DOT N/A         72  72  100 W6      N/A
#HORSE RIDGE DO N/A         56  40  55  W2      N/A
#KEYES SMT DOT  N/A         71  34  26  N6      N/A
#PAULINA SCHOOL N/A         63  33  32  CALM    29.95F
#PRAIRIE CITY   N/A         56  46  69  CALM    29.94R
#SENECA         N/A         55  N/A N/A CALM    N/A
#SENECA 9NW     N/A         54  35  48  CALM    29.72S
$$

ORZ049-041010-
GRANDE RONDE VALLEY

CITY            SKY/WX      TMP DP  RH  WIND    PRES   REMARKS
LA GRANDE       CLEAR       61  37  41  CALM    29.88S
#COVE           N/A         66  46  48  NE2     29.90F
#ELGIN 3N       N/A         56  41  57  CALM    29.89R
#ELGIN 1E       N/A         60  44  55  CALM    N/A
#IMBLER SCHOOL  N/A         65  46  50  CALM    29.85S
#ISLAND CITY 4N N/A         61  52  72  CALM    29.86S
#UNION 1S       N/A         60  46  60  CALM    29.63S
$$

ORZ050-041010-
WALLOWA COUNTY

CITY            SKY/WX      TMP DP  RH  WIND    PRES   REMARKS
#IMNAHA SCHOOL  N/A         76  47  36  S2      29.82S
#IMNAHA 10S     N/A         76  51  42  SW3     30.01S
#JOSEPH 3N      N/A         54  44  69  CALM    29.98S
#JOSEPH 3W      N/A         63  37  38  SW3     29.85S
#LOSTINE        N/A         60  46  60  CALM    29.53S
#MT HOWARD 8000 N/A         64  35  34  CALM    30.26F
#PROMISE 1S     N/A         73  42  33  E3      29.78F
#WALLOWA SCHOOL N/A         57  48  72  CALM    29.88S



$$



USA.gov is the U.S. government's official web portal to all federal, state and local government web resources and services.